,,,PA_Meas_PMT16A,,PR_Meas_QMR101_102,,RH_Meas_QMH101,,SR_Meas_QMS101,,TA_Meas_QMH101,,GenWind,,GenWind,
date,time,status,PA,status,PR,status,RH,status,SR,status,TA,status,DirAvg,status,SpdAvg,
2011-04-20, 00:00:04,VALID,1005.12,VALID,0,INVALID,124.107,VALID,0,VALID,26.118,VALID,92,VALID,0.403906,
2011-04-20, 00:01:04,VALID,1005.09,VALID,0,INVALID,140.524,VALID,0,VALID,26.0771,VALID,92,VALID,0.426562,
2011-04-20, 00:02:04,VALID,1005.12,VALID,0,INVALID,162.381,VALID,0,VALID,26.0401,VALID,92,VALID,0.279297,
2011-04-20, 00:03:04,VALID,1005.08,VALID,0,INVALID,162.915,VALID,0,VALID,26.0226,VALID,93,VALID,0.295703,
2011-04-20, 00:04:04,VALID,1005.09,VALID,0,INVALID,163.556,VALID,0,VALID,25.9836,VALID,92,VALID,0.114844,
2011-04-20, 00:05:04,VALID,1005.08,VALID,0,INVALID,163.525,VALID,0,VALID,25.9232,VALID,92,VALID,0.000390625,
2011-04-20, 00:06:04,VALID,1005.04,VALID,0,INVALID,163.578,VALID,0,VALID,25.8843,VALID,92,VALID,0.0847656,
2011-04-20, 00:07:04,VALID,1005.05,VALID,0,INVALID,163.556,VALID,0,VALID,25.8648,VALID,92,VALID,0.244922,
2011-04-20, 00:08:04,VALID,1005.05,VALID,0,INVALID,163.609,VALID,0,VALID,25.8259,VALID,92,VALID,0.152344,
2011-04-20, 00:09:04,VALID,1005.02,VALID,0,INVALID,163.617,VALID,0,VALID,25.7889,VALID,92,VALID,0.3875,
2011-04-20, 00:10:04,VALID,1005.04,VALID,0,INVALID,163.601,VALID,0,VALID,25.748,VALID,92,VALID,0.233594,
2011-04-20, 00:11:04,VALID,1005.05,VALID,0,INVALID,163.624,VALID,0,VALID,25.6895,VALID,92,VALID,0.535547,
2011-04-20, 00:12:04,VALID,1005.02,VALID,0,INVALID,163.601,VALID,0,VALID,25.6506,VALID,92,VALID,0.0347656,
2011-04-20, 00:13:04,VALID,1005.04,VALID,0,INVALID,163.594,VALID,0,VALID,25.6116,VALID,92,VALID,0.354297,
2011-04-20, 00:14:04,VALID,1005,VALID,0,INVALID,163.609,VALID,0.100563,VALID,25.5298,VALID,92,VALID,0.0128906,
2011-04-20, 00:15:04,VALID,1005,VALID,0,INVALID,163.617,VALID,0,VALID,25.5123,VALID,92,VALID,0.467578,
2011-04-20, 00:16:04,VALID,1004.97,VALID,0,INVALID,163.594,VALID,0.100563,VALID,25.4539,VALID,92,VALID,0.362891,
2011-04-20, 00:17:04,VALID,1005,VALID,0,INVALID,163.639,VALID,0,VALID,25.3955,VALID,92,VALID,0.0453125,
2011-04-20, 00:18:04,VALID,1005,VALID,0,INVALID,163.639,VALID,0.100563,VALID,25.376,VALID,92,VALID,0.107813,
2011-04-20, 00:19:04,VALID,1005.03,VALID,0,INVALID,163.617,VALID,0.100563,VALID,25.337,VALID,92,VALID,0.490625,
2011-04-20, 00:20:04,VALID,1005.04,VALID,0,INVALID,163.617,VALID,0,VALID,25.2981,VALID,92,VALID,0.319531,
2011-04-20, 00:21:04,VALID,1005.02,VALID,0,INVALID,163.647,VALID,0,VALID,25.2572,VALID,92,VALID,0.166406,
2011-04-20, 00:22:04,VALID,1005,VALID,0,INVALID,163.617,VALID,0.100563,VALID,25.2202,VALID,92,VALID,0.119531,
2011-04-20, 00:23:04,VALID,1004.96,VALID,0,INVALID,163.601,VALID,0,VALID,25.1813,VALID,92,VALID,0.363672,
2011-04-20, 00:24:04,VALID,1004.95,VALID,0,INVALID,163.655,VALID,0.100563,VALID,25.1423,VALID,92,VALID,0.357422,
2011-04-20, 00:25:04,VALID,1004.91,VALID,0,INVALID,163.632,VALID,0.100563,VALID,25.1034,VALID,92,VALID,0.177344,
2011-04-20, 00:26:04,VALID,1004.92,VALID,0,INVALID,163.662,VALID,0,VALID,25.0255,VALID,92,VALID,0.330078,
2011-04-20, 00:27:04,VALID,1004.89,VALID,0,INVALID,163.67,VALID,0.100563,VALID,24.9866,VALID,28,VALID,0.482812,
2011-04-20, 00:28:04,VALID,1004.88,VALID,0,INVALID,163.662,VALID,0.100563,VALID,24.9282,VALID,26,VALID,0.191016,
2011-04-20, 00:29:04,VALID,1004.88,VALID,0,INVALID,163.655,VALID,0,VALID,24.8911,VALID,26,VALID,0.376953,
2011-04-20, 00:30:04,VALID,1004.88,VALID,0,INVALID,163.655,VALID,0,VALID,24.8522,VALID,26,VALID,0.314844,
2011-04-20, 00:31:04,VALID,1004.89,VALID,0,INVALID,163.67,VALID,0,VALID,24.8132,VALID,26,VALID,0.2125,
2011-04-20, 00:32:04,VALID,1004.89,VALID,0,INVALID,163.67,VALID,0,VALID,24.7743,VALID,26,VALID,0.289844,
2011-04-20, 00:33:04,VALID,1004.9,VALID,0,INVALID,163.693,VALID,0,VALID,24.7548,VALID,26,VALID,0,
2011-04-20, 00:34:04,VALID,1004.91,VALID,0,INVALID,163.662,VALID,0,VALID,24.7353,VALID,26,VALID,0.0296875,
2011-04-20, 00:35:04,VALID,1004.9,VALID,0,INVALID,163.662,VALID,0,VALID,24.6964,VALID,26,VALID,0.248437,
2011-04-20, 00:36:04,VALID,1004.92,VALID,0,INVALID,163.647,VALID,0,VALID,24.6166,VALID,26,VALID,0.483594,
2011-04-20, 00:37:04,VALID,1004.96,VALID,0,INVALID,163.678,VALID,0,VALID,24.599,VALID,26,VALID,0.512891,
2011-04-20, 00:38:04,VALID,1004.99,VALID,0,INVALID,163.67,VALID,0,VALID,24.5601,VALID,26,VALID,0.478125,
2011-04-20, 00:39:04,VALID,1005,VALID,0,INVALID,163.685,VALID,0,VALID,24.5193,VALID,26,VALID,0.410547,
2011-04-20, 00:40:04,VALID,1005,VALID,0,INVALID,163.662,VALID,0,VALID,24.5212,VALID,26,VALID,0.68125,
2011-04-20, 00:41:04,VALID,1004.99,VALID,0,INVALID,163.708,VALID,0,VALID,24.5212,VALID,26,VALID,0.698047,
2011-04-20, 00:42:04,VALID,1004.96,VALID,0,INVALID,163.685,VALID,0,VALID,24.4822,VALID,26,VALID,0.600781,
2011-04-20, 00:43:04,VALID,1004.95,VALID,0,INVALID,163.685,VALID,0,VALID,24.5017,VALID,18,VALID,0.666406,
2011-04-20, 00:44:04,VALID,1004.93,VALID,0,INVALID,163.685,VALID,0,VALID,24.4804,VALID,360,VALID,0.604297,
2011-04-20, 00:45:04,VALID,1004.88,VALID,0,INVALID,163.685,VALID,0,VALID,24.4804,VALID,358,VALID,0.789453,
2011-04-20, 00:46:04,VALID,1004.82,VALID,0,INVALID,163.708,VALID,0,VALID,24.5017,VALID,356,VALID,0.542969,
2011-04-20, 00:47:04,VALID,1004.81,VALID,0,INVALID,163.678,VALID,0,VALID,24.5017,VALID,355,VALID,0.582031,
2011-04-20, 00:48:04,VALID,1004.8,VALID,0,INVALID,163.67,VALID,0,VALID,24.5017,VALID,18,VALID,0.497656,
2011-04-20, 00:49:04,VALID,1004.77,VALID,0,INVALID,163.678,VALID,0,VALID,24.5212,VALID,17,VALID,0.657031,
2011-04-20, 00:50:04,VALID,1004.78,VALID,0,INVALID,163.693,VALID,0,VALID,24.5406,VALID,17,VALID,0.649219,
2011-04-20, 00:51:04,VALID,1004.71,VALID,0,INVALID,163.693,VALID,0,VALID,24.5388,VALID,16,VALID,0.543359,
2011-04-20, 00:52:04,VALID,1004.69,VALID,0,INVALID,163.67,VALID,0,VALID,24.5601,VALID,14,VALID,0.558984,
2011-04-20, 00:53:04,VALID,1004.64,VALID,0,INVALID,163.662,VALID,0,VALID,24.6574,VALID,11,VALID,0.507031,
2011-04-20, 00:54:04,VALID,1004.58,VALID,0,INVALID,163.678,VALID,0,VALID,24.6769,VALID,11,VALID,0.471875,
2011-04-20, 00:55:04,VALID,1004.57,VALID,0,INVALID,163.655,VALID,0,VALID,24.7353,VALID,11,VALID,0.404297,
2011-04-20, 00:56:04,VALID,1004.52,VALID,0,INVALID,163.67,VALID,0,VALID,24.7529,VALID,11,VALID,0.150781,
2011-04-20, 00:57:04,VALID,1004.52,VALID,0,INVALID,163.685,VALID,0,VALID,24.7919,VALID,11,VALID,0.0800781,
2011-04-20, 00:58:04,VALID,1004.52,VALID,0,INVALID,163.647,VALID,0,VALID,24.8327,VALID,11,VALID,0.286328,
2011-04-20, 00:59:04,VALID,1004.49,VALID,0,INVALID,163.662,VALID,0,VALID,24.8327,VALID,122,VALID,0.708594,
2011-04-20, 01:00:04,VALID,1004.51,VALID,0,INVALID,163.67,VALID,0,VALID,24.7529,VALID,122,VALID,0.585938,
2011-04-20, 01:01:04,VALID,1004.52,VALID,0,INVALID,163.67,VALID,0,VALID,24.7353,VALID,122,VALID,0.476172,
2011-04-20, 01:02:04,VALID,1004.51,VALID,0,INVALID,163.685,VALID,0,VALID,24.7159,VALID,122,VALID,0.205859,
2011-04-20, 01:03:04,VALID,1004.53,VALID,0,INVALID,163.693,VALID,0,VALID,24.675,VALID,122,VALID,0.0230469,
2011-04-20, 01:04:04,VALID,1004.5,VALID,0,INVALID,163.678,VALID,0,VALID,24.6769,VALID,122,VALID,0,
2011-04-20, 01:05:04,VALID,1004.5,VALID,0,INVALID,163.685,VALID,0,VALID,24.6769,VALID,122,VALID,0.317578,
2011-04-20, 01:06:04,VALID,1004.48,VALID,0,INVALID,163.67,VALID,0,VALID,24.6361,VALID,122,VALID,0.288672,
2011-04-20, 01:07:04,VALID,1004.51,VALID,0,INVALID,163.685,VALID,0,VALID,24.638,VALID,110,VALID,0.341406,
2011-04-20, 01:08:04,VALID,1004.49,VALID,0,INVALID,163.678,VALID,0,VALID,24.638,VALID,110,VALID,0.195313,
2011-04-20, 01:09:04,VALID,1004.49,VALID,0,INVALID,163.678,VALID,0,VALID,24.6166,VALID,110,VALID,0.320313,
2011-04-20, 01:10:04,VALID,1004.47,VALID,0,INVALID,163.678,VALID,0,VALID,24.638,VALID,110,VALID,0.269531,
2011-04-20, 01:11:04,VALID,1004.51,VALID,0,INVALID,163.701,VALID,0,VALID,24.5972,VALID,110,VALID,0.0980469,
2011-04-20, 01:12:04,VALID,1004.5,VALID,0,INVALID,163.67,VALID,0,VALID,24.5972,VALID,110,VALID,0,
2011-04-20, 01:13:04,VALID,1004.52,VALID,0,INVALID,163.685,VALID,0,VALID,24.599,VALID,110,VALID,0,
2011-04-20, 01:14:04,VALID,1004.49,VALID,0,INVALID,163.693,VALID,0,VALID,24.5796,VALID,110,VALID,0.307813,
2011-04-20, 01:15:04,VALID,1004.5,VALID,0,INVALID,163.716,VALID,0,VALID,24.5796,VALID,110,VALID,0.0121094,
2011-04-20, 01:16:04,VALID,1004.49,VALID,0,INVALID,163.685,VALID,0,VALID,24.5796,VALID,110,VALID,0.11875,
2011-04-20, 01:17:04,VALID,1004.52,VALID,0,INVALID,163.693,VALID,0,VALID,24.5796,VALID,110,VALID,0,
2011-04-20, 01:18:04,VALID,1004.51,VALID,0,INVALID,163.67,VALID,0,VALID,24.5796,VALID,110,VALID,0.20625,
2011-04-20, 01:19:04,VALID,1004.51,VALID,0,INVALID,163.662,VALID,0,VALID,24.5601,VALID,98,VALID,0.216406,
2011-04-20, 01:20:04,VALID,1004.51,VALID,0,INVALID,163.708,VALID,0,VALID,24.5388,VALID,91,VALID,0.480078,
2011-04-20, 01:21:04,VALID,1004.52,VALID,0,INVALID,163.662,VALID,0,VALID,24.5582,VALID,87,VALID,0.353906,
2011-04-20, 01:22:04,VALID,1004.53,VALID,0,INVALID,163.701,VALID,0,VALID,24.599,VALID,85,VALID,0.437891,
2011-04-20, 01:23:04,VALID,1004.53,VALID,0,INVALID,163.67,VALID,0,VALID,24.5972,VALID,79,VALID,0.276953,
2011-04-20, 01:24:04,VALID,1004.52,VALID,0,INVALID,163.67,VALID,0,VALID,24.638,VALID,79,VALID,0.090625,
2011-04-20, 01:25:04,VALID,1004.54,VALID,0,INVALID,163.701,VALID,0,VALID,24.6361,VALID,79,VALID,0.192188,
2011-04-20, 01:26:04,VALID,1004.54,VALID,0,INVALID,163.678,VALID,0,VALID,24.6574,VALID,80,VALID,0.485156,
2011-04-20, 01:27:04,VALID,1004.56,VALID,0,INVALID,163.678,VALID,0,VALID,24.6964,VALID,81,VALID,0.233203,
2011-04-20, 01:28:04,VALID,1004.56,VALID,0,INVALID,163.685,VALID,0,VALID,24.6945,VALID,82,VALID,0.410547,
2011-04-20, 01:29:04,VALID,1004.57,VALID,0,INVALID,163.693,VALID,0,VALID,24.714,VALID,82,VALID,0.437891,
2011-04-20, 01:30:04,VALID,1004.59,VALID,0,INVALID,163.678,VALID,0,VALID,24.7529,VALID,82,VALID,0.312891,
2011-04-20, 01:31:04,VALID,1004.62,VALID,0,INVALID,163.655,VALID,0,VALID,24.7937,VALID,85,VALID,0.48125,
2011-04-20, 01:32:04,VALID,1004.62,VALID,0,INVALID,163.655,VALID,0,VALID,24.7937,VALID,85,VALID,0.433984,
2011-04-20, 01:33:04,VALID,1004.6,VALID,0,INVALID,163.701,VALID,0,VALID,24.8132,VALID,83,VALID,0.316797,
2011-04-20, 01:34:04,VALID,1004.61,VALID,0,INVALID,163.662,VALID,0,VALID,24.8327,VALID,81,VALID,0.53125,
2011-04-20, 01:35:04,VALID,1004.63,VALID,0,INVALID,163.662,VALID,0,VALID,24.8522,VALID,81,VALID,0.405078,
2011-04-20, 01:36:04,VALID,1004.62,VALID,0,INVALID,163.678,VALID,0,VALID,24.8911,VALID,82,VALID,0.446875,
2011-04-20, 01:37:04,VALID,1004.67,VALID,0,INVALID,163.639,VALID,0,VALID,24.9495,VALID,83,VALID,0.466797,
2011-04-20, 01:38:04,VALID,1004.66,VALID,0,INVALID,163.647,VALID,0,VALID,24.969,VALID,90,VALID,0.633984,
2011-04-20, 01:39:04,VALID,1004.7,VALID,0,INVALID,163.655,VALID,0,VALID,25.0079,VALID,96,VALID,0.657422,
2011-04-20, 01:40:04,VALID,1004.71,VALID,0,INVALID,163.632,VALID,0,VALID,25.0663,VALID,96,VALID,0.578125,
2011-04-20, 01:41:04,VALID,1004.71,VALID,0,INVALID,163.624,VALID,0,VALID,25.0839,VALID,89,VALID,0.693359,
2011-04-20, 01:42:04,VALID,1004.69,VALID,0,INVALID,163.639,VALID,0,VALID,25.1423,VALID,82,VALID,0.471484,
2011-04-20, 01:43:04,VALID,1004.7,VALID,0,INVALID,163.632,VALID,0,VALID,25.1813,VALID,76,VALID,0.478125,
2011-04-20, 01:44:04,VALID,1004.74,VALID,0,INVALID,163.624,VALID,0,VALID,25.2202,VALID,78,VALID,0.429688,
2011-04-20, 01:45:04,VALID,1004.69,VALID,0,INVALID,163.639,VALID,0,VALID,25.2611,VALID,80,VALID,0.685938,
2011-04-20, 01:46:04,VALID,1004.69,VALID,0,INVALID,163.632,VALID,0,VALID,25.2806,VALID,83,VALID,0.346875,
2011-04-20, 01:47:04,VALID,1004.69,VALID,0,INVALID,163.624,VALID,0,VALID,25.3195,VALID,77,VALID,0.239453,
2011-04-20, 01:48:04,VALID,1004.71,VALID,0,INVALID,163.647,VALID,0,VALID,25.2981,VALID,38,VALID,0.272656,
2011-04-20, 01:49:04,VALID,1004.67,VALID,0,INVALID,163.609,VALID,0,VALID,25.2611,VALID,38,VALID,0.443359,
2011-04-20, 01:50:04,VALID,1004.7,VALID,0,INVALID,163.647,VALID,0,VALID,25.2416,VALID,50,VALID,0.538281,
2011-04-20, 01:51:04,VALID,1004.68,VALID,0,INVALID,163.632,VALID,0,VALID,25.2007,VALID,53,VALID,0.227344,
2011-04-20, 01:52:04,VALID,1004.65,VALID,0,INVALID,163.632,VALID,0,VALID,25.1813,VALID,53,VALID,0.0238281,
2011-04-20, 01:53:04,VALID,1004.66,VALID,0,INVALID,163.624,VALID,0,VALID,25.1229,VALID,53,VALID,0.296484,
2011-04-20, 01:54:04,VALID,1004.66,VALID,0,INVALID,163.639,VALID,0,VALID,25.1229,VALID,127,VALID,0.373437,
2011-04-20, 01:55:04,VALID,1004.66,VALID,0,INVALID,163.662,VALID,0,VALID,25.1034,VALID,127,VALID,0.0917969,
2011-04-20, 01:56:04,VALID,1004.65,VALID,0,INVALID,163.647,VALID,0,VALID,25.1442,VALID,127,VALID,0.0558594,
2011-04-20, 01:57:04,VALID,1004.67,VALID,0,INVALID,163.639,VALID,0,VALID,25.1053,VALID,127,VALID,0.136719,
2011-04-20, 01:58:04,VALID,1004.69,VALID,0,INVALID,163.655,VALID,0,VALID,25.0858,VALID,112,VALID,0.597656,
2011-04-20, 01:59:04,VALID,1004.69,VALID,0,INVALID,163.655,VALID,0,VALID,25.0839,VALID,76,VALID,0.836328,
2011-04-20, 02:00:04,VALID,1004.73,VALID,0,INVALID,163.624,VALID,0,VALID,25.1442,VALID,59,VALID,1.49609,
2011-04-20, 02:01:04,VALID,1004.72,VALID,0,INVALID,163.678,VALID,0,VALID,25.2202,VALID,111,VALID,1.67656,
2011-04-20, 02:02:04,VALID,1004.73,VALID,0,INVALID,163.647,VALID,0,VALID,25.2786,VALID,118,VALID,1.61758,
2011-04-20, 02:03:04,VALID,1004.73,VALID,0,INVALID,163.624,VALID,0,VALID,25.337,VALID,99,VALID,1.70195,
2011-04-20, 02:04:04,VALID,1004.71,VALID,0,INVALID,163.609,VALID,0,VALID,25.3779,VALID,118,VALID,1.29258,
2011-04-20, 02:05:04,VALID,1004.71,VALID,0,INVALID,163.639,VALID,0,VALID,25.337,VALID,88,VALID,0.824219,
2011-04-20, 02:06:04,VALID,1004.69,VALID,0,INVALID,163.647,VALID,0,VALID,25.339,VALID,113,VALID,0.282031,
2011-04-20, 02:07:04,VALID,1004.68,VALID,0,INVALID,163.624,VALID,0,VALID,25.2786,VALID,95,VALID,0.514453,
2011-04-20, 02:08:04,VALID,1004.68,VALID,0,INVALID,163.609,VALID,0,VALID,25.2806,VALID,84,VALID,0.458984,
2011-04-20, 02:09:04,VALID,1004.67,VALID,0,INVALID,163.639,VALID,0,VALID,25.2416,VALID,81,VALID,0.263672,
2011-04-20, 02:10:04,VALID,1004.67,VALID,0,INVALID,163.678,VALID,0,VALID,25.2027,VALID,55,VALID,0.343359,
2011-04-20, 02:11:04,VALID,1004.64,VALID,0,INVALID,163.639,VALID,0,VALID,25.1423,VALID,89,VALID,0.587109,
2011-04-20, 02:12:04,VALID,1004.65,VALID,0,INVALID,163.639,VALID,0,VALID,25.1229,VALID,107,VALID,0.877344,
2011-04-20, 02:13:04,VALID,1004.63,VALID,0,INVALID,163.617,VALID,0,VALID,25.1034,VALID,96,VALID,0.466016,
2011-04-20, 02:14:04,VALID,1004.65,VALID,0,INVALID,163.655,VALID,0,VALID,25.0644,VALID,82,VALID,0.421094,
2011-04-20, 02:15:04,VALID,1004.66,VALID,0,INVALID,163.617,VALID,0,VALID,25.0644,VALID,68,VALID,0.421094,
2011-04-20, 02:16:04,VALID,1004.65,VALID,0,INVALID,163.655,VALID,0,VALID,25.0255,VALID,93,VALID,0.705469,
2011-04-20, 02:17:04,VALID,1004.65,VALID,0,INVALID,163.662,VALID,0,VALID,25.0469,VALID,98,VALID,1.47227,
2011-04-20, 02:18:04,VALID,1004.66,VALID,0,INVALID,163.617,VALID,0,VALID,25.0255,VALID,103,VALID,1.12969,
2011-04-20, 02:19:04,VALID,1004.67,VALID,0,INVALID,163.639,VALID,0,VALID,25.0663,VALID,107,VALID,1.19648,
2011-04-20, 02:20:04,VALID,1004.66,VALID,0,INVALID,163.662,VALID,0,VALID,25.0858,VALID,131,VALID,0.935547,
2011-04-20, 02:21:04,VALID,1004.62,VALID,0,INVALID,163.639,VALID,0.100563,VALID,25.0644,VALID,115,VALID,0.790625,
2011-04-20, 02:22:04,VALID,1004.6,VALID,0,INVALID,163.67,VALID,0.100563,VALID,25.0255,VALID,97,VALID,0.65,
2011-04-20, 02:23:04,VALID,1004.58,VALID,0,INVALID,163.639,VALID,0.100563,VALID,25.0255,VALID,91,VALID,0.414453,
2011-04-20, 02:24:04,VALID,1004.59,VALID,0,INVALID,163.647,VALID,0.100563,VALID,25.006,VALID,91,VALID,0.672656,
2011-04-20, 02:25:04,VALID,1004.53,VALID,0,INVALID,163.662,VALID,0,VALID,24.9866,VALID,56,VALID,0.205469,
2011-04-20, 02:26:04,VALID,1004.58,VALID,0,INVALID,163.632,VALID,0,VALID,24.9671,VALID,66,VALID,0.428516,
2011-04-20, 02:27:04,VALID,1004.56,VALID,0,INVALID,163.624,VALID,0.100563,VALID,24.969,VALID,78,VALID,0.441016,
2011-04-20, 02:28:04,VALID,1004.58,VALID,0,INVALID,163.685,VALID,0,VALID,24.9087,VALID,78,VALID,0.154297,
2011-04-20, 02:29:04,VALID,1004.56,VALID,0,INVALID,163.678,VALID,0.100563,VALID,24.8911,VALID,78,VALID,0.139844,
2011-04-20, 02:30:04,VALID,1004.54,VALID,0,INVALID,163.662,VALID,0,VALID,24.8503,VALID,78,VALID,0.228125,
2011-04-20, 02:31:04,VALID,1004.53,VALID,0,INVALID,163.639,VALID,0,VALID,24.8308,VALID,78,VALID,0.166797,
2011-04-20, 02:32:04,VALID,1004.54,VALID,0,INVALID,163.685,VALID,0,VALID,24.8113,VALID,61,VALID,0.576953,
2011-04-20, 02:33:04,VALID,1004.56,VALID,0,INVALID,163.67,VALID,0,VALID,24.7724,VALID,78,VALID,0.577734,
2011-04-20, 02:34:04,VALID,1004.55,VALID,0,INVALID,163.662,VALID,0,VALID,24.7919,VALID,66,VALID,0.370703,
2011-04-20, 02:35:04,VALID,1004.56,VALID,0,INVALID,163.67,VALID,0.100563,VALID,24.7919,VALID,86,VALID,0.699219,
2011-04-20, 02:36:04,VALID,1004.55,VALID,0,INVALID,163.67,VALID,0.100563,VALID,24.7919,VALID,85,VALID,0.617578,
2011-04-20, 02:37:04,VALID,1004.56,VALID,0,INVALID,163.678,VALID,0.100563,VALID,24.7724,VALID,83,VALID,0.377344,
2011-04-20, 02:38:04,VALID,1004.55,VALID,0,INVALID,163.67,VALID,0,VALID,24.7529,VALID,88,VALID,0.369922,
2011-04-20, 02:39:04,VALID,1004.54,VALID,0,INVALID,163.678,VALID,0.100563,VALID,24.7548,VALID,88,VALID,0.466797,
2011-04-20, 02:40:04,VALID,1004.55,VALID,0,INVALID,163.693,VALID,0,VALID,24.7529,VALID,88,VALID,0.325,
2011-04-20, 02:41:04,VALID,1004.53,VALID,0,INVALID,163.662,VALID,0,VALID,24.7743,VALID,88,VALID,0.279687,
2011-04-20, 02:42:04,VALID,1004.55,VALID,0,INVALID,163.685,VALID,0,VALID,24.7529,VALID,104,VALID,0.570703,
2011-04-20, 02:43:04,VALID,1004.55,VALID,0,INVALID,163.662,VALID,0,VALID,24.7743,VALID,95,VALID,0.644141,
2011-04-20, 02:44:04,VALID,1004.58,VALID,0,INVALID,163.67,VALID,0,VALID,24.7548,VALID,89,VALID,0.479688,
2011-04-20, 02:45:04,VALID,1004.62,VALID,0,INVALID,163.647,VALID,0.100563,VALID,24.714,VALID,89,VALID,0.513672,
2011-04-20, 02:46:04,VALID,1004.59,VALID,0,INVALID,163.685,VALID,0,VALID,24.714,VALID,87,VALID,0.480078,
2011-04-20, 02:47:04,VALID,1004.63,VALID,0,INVALID,163.685,VALID,0,VALID,24.7159,VALID,96,VALID,0.777734,
2011-04-20, 02:48:04,VALID,1004.62,VALID,0,INVALID,163.685,VALID,0.100563,VALID,24.7159,VALID,106,VALID,0.494531,
2011-04-20, 02:49:04,VALID,1004.62,VALID,0,INVALID,163.678,VALID,0,VALID,24.675,VALID,75,VALID,0.503906,
2011-04-20, 02:50:04,VALID,1004.64,VALID,0,INVALID,163.678,VALID,0.100563,VALID,24.675,VALID,72,VALID,0.633984,
2011-04-20, 02:51:04,VALID,1004.64,VALID,0,INVALID,163.678,VALID,0,VALID,24.7159,VALID,62,VALID,0.825,
2011-04-20, 02:52:04,VALID,1004.64,VALID,0,INVALID,163.685,VALID,0,VALID,24.7335,VALID,86,VALID,0.574219,
2011-04-20, 02:53:04,VALID,1004.63,VALID,0,INVALID,163.67,VALID,0.100563,VALID,24.7724,VALID,85,VALID,0.389453,
2011-04-20, 02:54:04,VALID,1004.65,VALID,0,INVALID,163.685,VALID,0,VALID,24.7724,VALID,81,VALID,0.548828,
2011-04-20, 02:55:04,VALID,1004.65,VALID,0,INVALID,163.67,VALID,0,VALID,24.7919,VALID,90,VALID,0.295312,
2011-04-20, 02:56:04,VALID,1004.63,VALID,0,INVALID,163.662,VALID,0,VALID,24.7919,VALID,99,VALID,0.954297,
2011-04-20, 02:57:04,VALID,1004.66,VALID,0,INVALID,163.639,VALID,0,VALID,24.8697,VALID,140,VALID,0.819922,
2011-04-20, 02:58:04,VALID,1004.65,VALID,0,INVALID,163.67,VALID,0,VALID,24.9087,VALID,141,VALID,0.792578,
2011-04-20, 02:59:04,VALID,1004.62,VALID,0,INVALID,163.655,VALID,0,VALID,24.969,VALID,141,VALID,0.644531,
2011-04-20, 03:00:04,VALID,1004.64,VALID,0,INVALID,163.655,VALID,0,VALID,24.9866,VALID,141,VALID,0.462109,
2011-04-20, 03:01:04,VALID,1004.64,VALID,0,INVALID,163.639,VALID,0,VALID,25.006,VALID,122,VALID,0.421484,
2011-04-20, 03:02:04,VALID,1004.6,VALID,0,INVALID,163.67,VALID,0,VALID,25.045,VALID,121,VALID,0.400781,
2011-04-20, 03:03:04,VALID,1004.61,VALID,0,INVALID,163.639,VALID,0,VALID,25.045,VALID,121,VALID,0.13125,
2011-04-20, 03:04:04,VALID,1004.61,VALID,0,INVALID,163.639,VALID,0,VALID,25.0469,VALID,121,VALID,0.316016,
2011-04-20, 03:05:04,VALID,1004.59,VALID,0,INVALID,163.655,VALID,0,VALID,25.0255,VALID,105,VALID,0.223828,
2011-04-20, 03:06:04,VALID,1004.59,VALID,0,INVALID,163.647,VALID,0,VALID,25.045,VALID,104,VALID,0.345703,
2011-04-20, 03:07:04,VALID,1004.57,VALID,0,INVALID,163.632,VALID,0.100563,VALID,25.0644,VALID,104,VALID,0.130078,
2011-04-20, 03:08:04,VALID,1004.6,VALID,0,INVALID,163.678,VALID,0,VALID,25.045,VALID,104,VALID,0.0664063,
2011-04-20, 03:09:04,VALID,1004.63,VALID,0,INVALID,163.639,VALID,0,VALID,25.0663,VALID,104,VALID,0.0148437,
2011-04-20, 03:10:04,VALID,1004.63,VALID,0,INVALID,163.639,VALID,0,VALID,25.045,VALID,104,VALID,0,
2011-04-20, 03:11:04,VALID,1004.65,VALID,0,INVALID,163.624,VALID,0,VALID,25.0469,VALID,104,VALID,0.107813,
2011-04-20, 03:12:04,VALID,1004.65,VALID,0,INVALID,163.655,VALID,0,VALID,25.0274,VALID,104,VALID,0.193359,
2011-04-20, 03:13:04,VALID,1004.65,VALID,0,INVALID,163.624,VALID,0.100563,VALID,24.9866,VALID,104,VALID,0.257422,
2011-04-20, 03:14:04,VALID,1004.67,VALID,0,INVALID,163.655,VALID,0,VALID,25.0098,VALID,104,VALID,0.0304688,
2011-04-20, 03:15:04,VALID,1004.66,VALID,0,INVALID,163.647,VALID,0,VALID,24.969,VALID,104,VALID,0.182422,
2011-04-20, 03:16:04,VALID,1004.65,VALID,0,INVALID,163.67,VALID,0,VALID,24.969,VALID,104,VALID,0,
2011-04-20, 03:17:04,VALID,1004.65,VALID,0,INVALID,163.647,VALID,0,VALID,24.9904,VALID,104,VALID,0,
2011-04-20, 03:18:04,VALID,1004.63,VALID,0,INVALID,163.67,VALID,0,VALID,24.9495,VALID,104,VALID,0.0738281,
2011-04-20, 03:19:04,VALID,1004.68,VALID,0,INVALID,163.647,VALID,0,VALID,24.9709,VALID,104,VALID,0.316016,
2011-04-20, 03:20:04,VALID,1004.68,VALID,0,INVALID,163.655,VALID,0,VALID,24.93,VALID,104,VALID,0.299219,
2011-04-20, 03:21:04,VALID,1004.66,VALID,0,INVALID,163.662,VALID,0,VALID,24.93,VALID,100,VALID,0.368359,
2011-04-20, 03:22:04,VALID,1004.68,VALID,0,INVALID,163.647,VALID,0,VALID,24.9106,VALID,75,VALID,0.154297,
2011-04-20, 03:23:04,VALID,1004.71,VALID,0,INVALID,163.639,VALID,0,VALID,24.93,VALID,75,VALID,0,
2011-04-20, 03:24:04,VALID,1004.7,VALID,0,INVALID,163.708,VALID,0,VALID,24.8911,VALID,75,VALID,0.184375,
2011-04-20, 03:25:04,VALID,1004.7,VALID,0,INVALID,163.693,VALID,0,VALID,24.8911,VALID,73,VALID,0.354297,
2011-04-20, 03:26:04,VALID,1004.69,VALID,0,INVALID,163.67,VALID,0,VALID,24.8911,VALID,73,VALID,0.308203,
2011-04-20, 03:27:04,VALID,1004.73,VALID,0,INVALID,163.647,VALID,0,VALID,24.8911,VALID,73,VALID,0.376172,
2011-04-20, 03:28:04,VALID,1004.74,VALID,0,INVALID,163.67,VALID,0,VALID,24.893,VALID,73,VALID,0.151172,
2011-04-20, 03:29:04,VALID,1004.76,VALID,0,INVALID,163.67,VALID,0,VALID,24.8911,VALID,73,VALID,0.009375,
2011-04-20, 03:30:04,VALID,1004.78,VALID,0,INVALID,163.693,VALID,0,VALID,24.8911,VALID,73,VALID,0.240625,
2011-04-20, 03:31:04,VALID,1004.78,VALID,0,INVALID,163.662,VALID,0,VALID,24.8892,VALID,73,VALID,0.585547,
2011-04-20, 03:32:04,VALID,1004.78,VALID,0,INVALID,163.701,VALID,0,VALID,24.9087,VALID,90,VALID,0.648828,
2011-04-20, 03:33:04,VALID,1004.78,VALID,0,INVALID,163.647,VALID,0,VALID,24.9671,VALID,79,VALID,0.374609,
2011-04-20, 03:34:04,VALID,1004.8,VALID,0,INVALID,163.647,VALID,0,VALID,24.9866,VALID,79,VALID,0.280078,
2011-04-20, 03:35:04,VALID,1004.8,VALID,0,INVALID,163.678,VALID,0.100563,VALID,25.006,VALID,79,VALID,0.348437,
2011-04-20, 03:36:04,VALID,1004.82,VALID,0,INVALID,163.662,VALID,0,VALID,25.0255,VALID,80,VALID,0.383984,
2011-04-20, 03:37:04,VALID,1004.79,VALID,0,INVALID,163.647,VALID,0,VALID,25.0663,VALID,80,VALID,0.260938,
2011-04-20, 03:38:04,VALID,1004.83,VALID,0,INVALID,163.655,VALID,0,VALID,25.0644,VALID,80,VALID,0.246094,
2011-04-20, 03:39:04,VALID,1004.82,VALID,0,INVALID,163.67,VALID,0.100563,VALID,25.0644,VALID,80,VALID,0.240234,
2011-04-20, 03:40:04,VALID,1004.82,VALID,0,INVALID,163.647,VALID,0,VALID,25.0644,VALID,80,VALID,0.155859,